Date String (YYYY-MM-DD hh:mm:ss) UTC,Instrument flags,absolute air pressure of the measurement (hPa),sample flow rate (lpm),inlet stack bypass flow (lpm),air temperature of the measurement (°C),ambient temperature measured by the external sensor (°C),aerosol sample conditioner tube jacket temperature (°C),OPC LED temperature (°C),internal box temperature (°C),relative humidity of the measurement (%),span deviation,mass concentration of particles derived from Lorenz-Mie calculation of OPC scattering (μg/m³),mass concentration of particles derived from Lorenz-Mie calculation of OPC scattering (μg/m³),mass concentration of particles derived from Lorenz-Mie calculation of OPC scattering (μg/m³)
DateTimeUTC,F1_M11,P_M11,Q1_M11,Q2_M11,T1_M11,T2_M11,T3_M11,T4_M11,T5_M11,U1_M11,ZSPAN_M11,X2_M11,X0_M11,X1_M11
2023-11-29 07:00:00,SystemResetWarning,0830.4,5.00,000.00,020.0,019.1,000.0,028.5,021.1,6.6,0000.0,0000.94,0001.22,0000.86
2023-11-29 07:01:00,SystemResetWarning,0830.4,5.00,000.00,020.0,019.1,000.0,028.5,021.1,6.6,0000.0,0000.87,0001.10,0000.80
2023-11-29 07:02:00,SystemResetWarning,0830.3,5.00,000.00,020.0,019.0,000.0,028.5,021.1,6.6,0000.0,0000.81,0001.01,0000.76
2023-11-29 07:03:00,SystemResetWarning,0830.3,5.00,000.00,020.0,019.0,000.0,028.5,021.0,6.6,0000.0,0000.79,0000.98,0000.75
2023-11-29 07:04:00,SystemResetWarning,0830.3,5.01,000.00,019.9,019.0,000.0,028.5,021.0,6.5,0000.0,0000.80,0000.99,0000.75
2023-11-29 07:05:00,SystemResetWarning,0830.3,5.00,000.00,019.9,019.0,000.0,028.5,021.0,6.8,0000.0,0000.80,0001.00,0000.75
2023-11-29 07:06:00,SystemResetWarning,0830.3,5.00,000.00,019.9,019.0,000.0,028.5,021.0,6.9,0000.0,0000.79,0000.97,0000.74
2023-11-29 07:07:00,SystemResetWarning,0830.3,5.00,000.00,019.9,019.0,000.0,028.4,021.0,6.8,0000.0,0000.79,0000.97,0000.73
2023-11-29 07:08:00,SystemResetWarning,0830.3,5.01,000.00,019.9,019.0,000.0,028.4,020.9,6.7,0000.0,0000.77,0000.94,0000.72
2023-11-29 07:09:00,SystemResetWarning,0830.3,5.00,000.00,019.9,019.0,000.0,028.4,021.0,6.7,0000.0,0000.77,0000.94,0000.70
2023-11-29 07:10:00,SystemResetWarning,0830.2,5.01,000.00,019.9,019.0,000.0,028.4,021.0,6.5,0000.0,0000.77,0000.94,0000.70
2023-11-29 07:11:00,SystemResetWarning,0830.2,5.00,000.00,019.9,019.0,000.0,028.4,020.9,6.4,0000.0,0000.76,0000.93,0000.69
2023-11-29 07:12:00,SystemResetWarning,0830.3,4.99,000.00,019.9,019.0,000.0,028.4,020.9,6.4,0000.0,0000.76,0000.93,0000.69
2023-11-29 07:13:00,SystemResetWarning,0830.2,4.99,000.00,019.8,019.0,000.0,028.4,020.9,6.3,0000.0,0000.78,0000.95,0000.69
2023-11-29 07:14:00,SystemResetWarning,0830.2,5.00,000.00,019.8,018.9,000.0,028.3,020.9,6.2,0000.0,0000.80,0001.03,0000.69
2023-11-29 07:15:00,SystemResetWarning,0830.1,5.00,000.00,019.8,018.9,000.0,028.3,020.9,6.0,0000.0,0000.80,0001.10,0000.67
2023-11-29 07:16:00,SystemResetWarning,0830.1,5.00,000.00,019.8,018.9,000.0,028.3,020.9,6.1,0000.0,0000.79,0001.16,0000.65
2023-11-29 07:17:00,SystemResetWarning,0830.2,5.00,000.00,019.8,018.9,000.0,028.3,020.9,6.1,0000.0,0000.79,0001.15,0000.65
2023-11-29 07:18:00,SystemResetWarning,0830.1,5.00,000.00,019.8,018.9,000.0,028.3,020.9,6.1,0000.0,0000.77,0001.16,0000.64
2023-11-29 07:19:00,SystemResetWarning,0830.1,5.00,000.00,019.8,018.9,000.0,028.3,020.9,6.2,0000.0,0000.77,0001.18,0000.63
2023-11-29 07:20:00,SystemResetWarning,0830.1,5.00,000.00,019.8,018.9,000.0,028.3,020.9,6.3,0000.0,0000.76,0001.15,0000.64
2023-11-29 07:21:00,SystemResetWarning,0830.1,5.01,000.00,019.8,018.9,000.0,028.3,020.8,6.3,0000.0,0000.77,0001.15,0000.64
2023-11-29 07:22:00,SystemResetWarning,0830.1,5.01,000.00,019.7,018.9,000.0,028.2,020.8,6.2,0000.0,0000.80,0001.22,0000.64
2023-11-29 07:23:00,SystemResetWarning,0830.0,5.00,000.00,019.7,018.9,000.0,028.2,020.8,6.3,0000.0,0000.81,0001.37,0000.65
2023-11-29 07:24:00,SystemResetWarning,0830.0,4.99,000.00,019.7,018.8,000.0,028.2,020.8,6.3,0000.0,0000.80,0002.63,0000.64
2023-11-29 07:25:00,SystemResetWarning,0830.0,4.99,000.00,019.7,018.8,000.0,028.2,020.8,6.3,0000.0,0000.78,0002.57,0000.65
2023-11-29 07:26:00,SystemResetWarning,0830.1,5.01,000.00,019.7,018.8,000.0,028.2,020.7,6.5,0000.0,0000.77,0002.50,0000.64
2023-11-29 07:27:00,SystemResetWarning,0830.0,5.01,000.00,019.7,018.8,000.0,028.2,020.7,6.5,0000.0,0000.76,0002.40,0000.65
2023-11-29 07:28:00,SystemResetWarning,0830.0,5.01,000.00,019.6,018.7,000.0,028.2,020.7,6.3,0000.0,0000.75,0002.43,0000.64
2023-11-29 07:29:00,SystemResetWarning,0830.0,5.00,000.00,019.6,018.7,000.0,028.2,020.7,6.2,0000.0,0000.75,0002.46,0000.64
2023-11-29 07:30:00,SystemResetWarning,0829.9,5.00,000.00,019.6,018.7,000.0,028.1,020.7,6.2,0000.0,0000.75,0002.52,0000.64
2023-11-29 07:31:00,SystemResetWarning,0829.9,5.00,000.00,019.6,018.7,000.0,028.1,020.7,6.1,0000.0,0000.77,0002.57,0000.64
2023-11-29 07:32:00,SystemResetWarning,0829.9,5.00,000.00,019.6,018.7,000.0,028.1,020.7,6.1,0000.0,0000.75,0002.55,0000.63
2023-11-29 07:33:00,SystemResetWarning,0829.9,5.00,000.00,019.6,018.7,000.0,028.1,020.7,6.3,0000.0,0000.71,0002.53,0000.62
2023-11-29 07:34:00,SystemResetWarning,0829.9,4.99,000.00,019.6,018.6,000.0,028.1,020.7,6.4,0000.0,0000.73,0002.55,0000.62
2023-11-29 07:35:00,SystemResetWarning,0829.8,5.00,000.00,019.6,018.6,000.0,028.1,020.7,6.3,0000.0,0000.72,0001.22,0000.62
2023-11-29 07:36:00,SystemResetWarning,0829.8,5.00,000.00,019.5,018.6,000.0,028.1,020.6,6.4,0000.0,0000.71,0001.29,0000.61
2023-11-29 07:37:00,SystemResetWarning,0829.8,5.00,000.00,019.5,018.6,000.0,028.1,020.6,6.3,0000.0,0000.71,0002.14,0000.61
2023-11-29 07:38:00,SystemResetWarning,0829.8,5.01,000.00,019.5,018.6,000.0,028.0,020.6,6.2,0000.0,0000.71,0002.41,0000.61
2023-11-29 07:39:00,SystemResetWarning,0829.8,5.00,000.00,019.5,018.6,000.0,028.0,020.6,6.3,0000.0,0000.72,0002.47,0000.61
2023-11-29 07:40:00,SystemResetWarning,0829.8,4.99,000.00,019.5,018.6,000.0,028.0,020.6,6.5,0000.0,0000.72,0002.43,0000.60
2023-11-29 07:41:00,SystemResetWarning,0829.8,5.00,000.00,019.5,018.6,000.0,028.0,020.5,6.8,0000.0,0000.71,0002.39,0000.60
2023-11-29 07:42:00,SystemResetWarning,0829.8,4.99,000.00,019.5,018.6,000.0,028.0,020.5,6.9,0000.0,0000.69,0002.30,0000.60
2023-11-29 07:43:00,SystemResetWarning,0829.8,5.00,000.00,019.4,018.6,000.0,028.0,020.5,6.8,0000.0,0000.69,0002.31,0000.60
2023-11-29 07:44:00,SystemResetWarning,0829.8,5.01,000.00,019.4,018.6,000.0,028.0,020.5,6.8,0000.0,0000.69,0002.31,0000.60
2023-11-29 07:45:00,SystemResetWarning,0829.8,5.01,000.00,019.4,018.6,000.0,028.0,020.5,7.3,0000.0,0000.66,0002.15,0000.59
2023-11-29 07:46:00,SystemResetWarning,0829.7,5.00,000.00,019.4,018.6,000.0,027.9,020.4,6.9,0000.0,0000.65,0002.11,0000.59
2023-11-29 07:47:00,SystemResetWarning,0829.7,4.99,000.00,019.4,018.6,000.0,027.9,020.5,6.7,0000.0,0000.66,0002.14,0000.59
2023-11-29 07:48:00,SystemResetWarning,0829.7,4.99,000.00,019.4,018.6,000.0,027.9,020.5,6.6,0000.0,0000.68,0001.46,0000.59
2023-11-29 07:49:00,SystemResetWarning,0829.7,5.00,000.00,019.4,018.5,000.0,027.9,020.5,6.6,0000.0,0000.69,0001.07,0000.58
2023-11-29 07:50:00,SystemResetWarning,0829.7,5.00,000.00,019.4,018.5,000.0,027.9,020.5,6.7,0000.0,0000.67,0001.03,0000.57
2023-11-29 07:51:00,SystemResetWarning,0829.7,5.01,000.00,019.4,018.5,000.0,027.9,020.5,7.0,0000.0,0000.67,0000.94,0000.58
2023-11-29 07:52:00,SystemResetWarning,0829.7,5.00,000.00,019.4,018.5,000.0,027.9,020.4,6.9,0000.0,0000.67,0000.94,0000.58
2023-11-29 07:53:00,SystemResetWarning,0829.7,5.00,000.00,019.4,018.5,000.0,027.8,020.4,6.7,0000.0,0000.68,0000.95,0000.58
2023-11-29 07:54:00,SystemResetWarning,0829.7,5.00,000.00,019.3,018.5,000.0,027.8,020.4,6.6,0000.0,0000.70,0000.98,0000.58
2023-11-29 07:55:00,SystemResetWarning,0829.7,5.00,000.00,019.3,018.4,000.0,027.8,020.3,6.6,0000.0,0000.70,0000.97,0000.58
2023-11-29 07:56:00,SystemResetWarning,0829.7,5.00,000.00,019.3,018.4,000.0,027.8,020.4,6.6,0000.0,0000.71,0001.00,0000.59
2023-11-29 07:57:00,SystemResetWarning,0829.7,5.01,000.00,019.3,018.4,000.0,027.8,020.4,6.5,0000.0,0000.75,0001.14,0000.59
2023-11-29 07:58:00,SystemResetWarning,0829.6,5.00,000.00,019.3,018.4,000.0,027.8,020.3,6.4,0000.0,0000.74,0001.13,0000.60
2023-11-29 07:59:00,SystemResetWarning,0829.6,5.00,000.00,019.3,018.4,000.0,027.8,020.3,6.3,0000.0,0000.73,0001.08,0000.60
